Regional Weather Roundup
Issued by NWS

Home | Current Version | Previous Version | Text Only | Print | Product List | Glossary Off
Versions: 1 2 3 4 5 6 7 8 9 10 11 12 13 14 15 16 17 18 19 20 21 22 23 24 25 26 27 28 29 30 31 32 33 34 35 36 37 38 39 40 41 42 43 44 45 46 47 48 49 50

000
ASUS43 KMPX 281210
RWRMN
WEATHER ROUNDUP FOR MINNESOTA
NATIONAL WEATHER SERVICE TWIN CITIES/CHANHASSEN MN
600 AM CST SUN DEC 28 2014


NOTE: "FAIR" INDICATES FEW OR NO CLOUDS BELOW 12,000 FEET WITH NO
SIGNIFICANT WEATHER AND/OR OBSTRUCTIONS TO VISIBILITY. N/A MEANS
CURRENT SKY AND/OR WEATHER CONDITIONS ARE NOT AVAILABLE.

MNZ060>063-068>070-281300-
   Twin Cities Metro

CITY           SKY/WX    TMP DP  RH WIND       PRES   REMARKS
TWIN CITIES    PTCLDY    10   6  84 CALM      30.10S
6HR MIN TEMP:  10; 6HR MAX TEMP:  12;

ST PAUL        CLEAR     10   7  87 CALM      30.12S
CRYSTAL        CLEAR     10   6  84 CALM      30.09R
BLAINE         MOCLDY    12   9  85 SW3       30.08S
LAKEVILLE      CLEAR      9   7  92 CALM      30.09S
EDEN PRAIRIE   CLEAR      7   3  84 SW5       30.09S WCI  -2
6HR MIN TEMP:   7; 6HR MAX TEMP:  10;

SOUTH ST PAUL  CLEAR     11   7  87 CALM      30.10S
LAKE ELMO      FAIR       9   7  92 S3        30.09S
$$
MNZ001>005-007-008-013>017-022>024-027-028-281300-
   Northwest Minnesota

CITY           SKY/WX    TMP DP  RH WIND       PRES   REMARKS
BEMIDJI        PTCLDY     0  -4  83 N8        30.12R WCI -14
HALLOCK        CLEAR    -11 -17  77 N9        30.24R WCI -29
ROSEAU         CLEAR     -6 -11  77 NW6       30.19R WCI -18
WARROAD        CLEAR     -8 -13  77 CALM      30.17R
THIEF RVR FALL CLEAR     -6 -11  77 NW9       30.17R WCI -22
CROOKSTON      CLEAR     -6 -11  77 N15       30.22R WCI -27
FOSSTON        PTCLDY    -8  -9  92 CALM      30.15R
DETROIT LAKES  MOCLDY     9   5  85 N15       30.11R WCI  -8
MOORHEAD       CLOUDY     7   5  92 N20       30.18R WCI -13
PARK RAPIDS    MOCLDY    14   7  73 N10       30.06R WCI   1
MAHNOMEN       PTSUNNY    0  -4  82 N12       30.14R WCI -17
$$
MNZ006-009>011-018-025>026-281300-
   North Central Minnesota

CITY           SKY/WX    TMP DP  RH WIND       PRES   REMARKS
BAUDETTE       CLEAR     -4  -9  79 NW10      30.13R WCI -21
FLAG ISLAND    CLEAR     -9 -15  77 NW13      30.16R WCI -30
INTL FALLS     PTCLDY    -4  -9  79 NW7       30.11R WCI -18
6HR MIN TEMP:  -4; 6HR MAX TEMP:   7;

WASKISH        CLOUDY     0  -6  78 CALM      30.13R
BIG FORK       PTCLDY    -2  -8  78 N3        30.10R
LONGVILLE      FLURRIES  12   9  85 NW6       30.07R WCI   3
GRAND RAPIDS   MOCLDY    10   5  79 N14       30.04R WCI  -5
CRANE LAKE     CLOUDY     0  -6  78 NW3       30.10S
ORR            MOCLDY    -2  -8  78 NW9       30.05R WCI -18
COOK           MOCLDY     1  -2  85 NW5       30.07R WCI  -8
WALKER         FLURRIES   9   4  82 NW3       30.08R
$$
MNZ012-019>021-037-281300-
   Northeast Minnesota

CITY           SKY/WX    TMP DP  RH WIND       PRES   REMARKS
DULUTH         FLURRIES  16   9  74 NW8       30.01R WCI   5
6HR MIN TEMP:  16; 6HR MAX TEMP:  19; 6HR PCP: TRACE;

ELY            CLEAR      3  -2  78 W7        30.02R WCI  -9
HIBBING        PTCLDY     7  -1  70 NW13      30.05R WCI  -9
EVELETH        PTCLDY     9   3  78 NW13      30.05R WCI  -7
DULUTH HARBOR  CLOUDY    21  12  68 NW9       30.08R WCI  11
TWO HARBORS    MOCLDY    18  10  73 NW6       30.01R WCI   9
SILVER BAY     PTCLDY    14   7  73 W6        30.00R WCI   5
GRAND MARAIS     N/A     13   3  64 VRB5      30.03R WCI   5
G MARAIS ARPRT PTCLDY     3  -2  78 W6        29.92R WCI  -8
$$
MNZ029>031-032-039>041-046>048-054>057-064-281300-
   West Central Minnesota

CITY           SKY/WX    TMP DP  RH WIND       PRES   REMARKS
FERGUS FALLS   CLOUDY    18  12  79 N8        30.13R WCI   7
WHEATON        CLOUDY    16  12  86 N12       30.13R WCI   3
MORRIS         CLEAR     12  10  92 W5        30.07R WCI   4
ALEXANDRIA     CLOUDY    17  15  92 CALM      30.05R
ELBOW LAKE     CLOUDY    16  15  95 NW12      30.08R WCI   3
WADENA         FLURRIES  18  14  86 N9        30.05R WCI   6
GLENWOOD       CLOUDY    16  16 100 NW5       30.06R WCI   9
APPLETON       PTCLDY    10   9  92 CALM      30.09R
BENSON         PTCLDY    10   7  85 CALM      30.08R
ORTONVILLE     CLOUDY    16  12  86 NW6       30.09R WCI   7
MADISON        CLOUDY    18  14  86 W8        30.10R WCI   7
WILLMAR        FAIR      14  10  85 CALM      30.08S
$$
MNZ033>034-036-042>043-049>051-058-059-281300-
   Central Minnesota

CITY           SKY/WX    TMP DP  RH WIND       PRES   REMARKS
ST CLOUD       CLOUDY    18  12  77 SW3       30.07R
6HR MIN TEMP:  14; 6HR MAX TEMP:  21;

SAUK CENTRE    CLOUDY    14  12  92 CALM      30.06S
PAYNESVILLE    CLOUDY    12  11  96 SW3       30.08R
AITKIN         CLOUDY    19  10  68 N10       30.04R WCI   8
PINE RIVER     CLOUDY    16  10  79 N7        30.09R WCI   6
BRAINERD       CLOUDY    19  15  84 N16       30.06R WCI   4
STAPLES        CLOUDY    19  16  86 N12       30.05R WCI   7
LONG PRAIRIE   CLOUDY    18  16  93 CALM      30.05R
LITTLE FALLS   CLOUDY    19  16  86 CALM      30.06R
LITCHFIELD     FAIR      12  10  92 CALM      30.08R
BUFFALO        PTCLDY     5   2  87 CALM      30.10R
MAPLE LAKE     PTCLDY     8   6  92 CALM      30.09R
$$
MNZ037-044-045-052-053-281300-
   East Central Minnesota

CITY           SKY/WX    TMP DP  RH WIND       PRES   REMARKS
PRINCETON      CLOUDY    16  12  86 CALM      30.07R
MORA           CLOUDY    16  12  86 CALM      30.07S
CAMBRIDGE      CLOUDY    18  10  73 S3        30.06R
RUSH CITY      CLOUDY    14  11  89 CALM      30.08R
MOOSE LAKE     FLURRIES  19  18  93 CALM      30.03R
HINCKLEY       CLOUDY    18  16  93 CALM      30.06S
CLOQUET        CLOUDY    18  10  73 NW5       30.03R WCI  11
MCGREGOR       CLOUDY    19  14  79 NW8       30.06R WCI   9
$$
MNZ071>073-080-081-089-090-097-098-281300-
   Southwest Minnesota

CITY           SKY/WX    TMP DP  RH WIND       PRES   REMARKS
MONTEVIDEO     CLOUDY    14  12  92 NW5       30.10R WCI   6
GRANITE FALLS  PTCLDY     9   7  89 SW3       30.11R
CANBY          PTCLDY    14  11  90 W6        30.10R WCI   5
MARSHALL       PTCLDY    12   7  79 W8        30.08R WCI   1
REDWOOD FALLS  PTCLDY    11   7  84 W3        30.09R
OLIVIA         PTCLDY     9   7  92 SW5       30.08S WCI   0
PIPESTONE      PTCLDY     1   0  92 CALM      30.06R
WINDOM         CLEAR      7   3  85 CALM      30.07S
WORTHINGTON    CLEAR     10 -33  12 W7        30.06S WCI   0
JACKSON        CLEAR     10   7  85 W5        30.07S WCI   2
TRACY          CLEAR     12   9  87 W8        30.08S WCI   0
SLAYTON        PTCLDY     9   7  89 W7        30.07R WCI  -2
$$
MNZ065>067-074>077-082>085-091>093-281300-
   South Central Minnesota

CITY           SKY/WX    TMP DP  RH WIND       PRES   REMARKS
MANKATO        CLOUDY    10   3  72 S3        30.09R
NEW ULM        PTCLDY     9   5  85 W5        30.09R WCI   0
ST JAMES       CLEAR     10   7  85 SW8       30.10R WCI  -1
FAIRMONT       CLEAR     10   7  85 W7        30.08R WCI   0
GLENCOE        PTCLDY     1  -1  89 CALM      30.09R
FARIBAULT      MOCLDY     5   1  85 CALM      30.09S
OWATONNA       MOCLDY     9   7  92 S3        30.08S
WASECA         MOCLDY     9   5  85 CALM      30.10S
ALBERT LEA     CLEAR     10   9  92 SW3       30.08F
$$
MNZ078>079-086>088-094>096-281300-
   Southeast Minnesota

CITY           SKY/WX    TMP DP  RH WIND       PRES   REMARKS
ROCHESTER      CLEAR      7   4  87 SW6       30.08S WCI  -3
6HR MIN TEMP:   4; 6HR MAX TEMP:   8;

RED WING       CLEAR      5   1  85 CALM      30.11R
STANTON        PTCLDY     8   4  86 SW5       30.08S WCI  -1
DODGE CENTER   PTCLDY     7   5  92 SW5       30.07S WCI  -2
WINONA         CLEAR     10   9  92 NW3       30.14S
AUSTIN         PTCLDY     5   1  85 CALM      30.09S
PRESTON        CLEAR      7   5  91 SW3       30.09S
$$
ABBREVIATIONS USED IN REMARKS
   TC - TEMPERATURES IN CELSIUS
  WCI - WIND CHILL INDEX
   HX - HEAT INDEX
  VSB - VISIBILITY
$$



USA.gov is the U.S. government's official web portal to all federal, state and local government web resources and services.